ANIK F3

Last updated on Wed Jul 09 2025 00:02:43 GMT+0000 (Coordinated Universal Time)

1 31102U 07009A 25189.39659808 .00000015 00000+0 00000+0 0 9990 2 31102 0.3060 88.4372 0002302 35.5578 186.6437 1.00272534 43118
UTC large
Height (km)
Speed (km/s)
/
Latitude / Longitude
Inclination (degrees)
Orbital Period (minutes)
Azimuth
Elevation
Range (km)
Doppler Factor

Next 0 passes for location: London (51.5072 / 0.1276)

Sorry there are no passes over London.